Colorado Springs, CO

11:55 PM MST on January 22, 2018 (GMT -0700)
City Of Colorado Springs Municipal

Weather History for KCOS - February, 2012

Change the Weather History Date:

Friday, February 17, 2012

  Actual Average Record
Temperature  
Mean Temperature 35 °F 32 °F  
Max Temperature 49 °F 45 °F 68 °F (1970)
Min Temperature 21 °F 20 °F -19 °F (1910)
Degree Days  
Heating Degree Days 30 33  
Month to date heating degree days 603 573  
Since 1 July heating degree days 3876 4216  
Cooling Degree Days 0 0  
Month to date cooling degree days 0 0  
Year to date cooling degree days 0 0  
Moisture  
Dew Point 10 °F    
Average Humidity 46    
Maximum Humidity 81    
Minimum Humidity 11    
Precipitation  
Precipitation T in 0.01 in 0.42 in (1917)
Month to date precipitation 0.22 0.17  
Year to date precipitation 0.24 0.49  
Snow  
Snow T in 0.20 in 6.00 in (1917)
Month to date snowfall 3.1 3.0  
Since 1 July snowfall 19.9 22.1  
Snow Depth 0.00 in    
Sea Level Pressure  
Sea Level Pressure 30.13 in    
Wind  
Wind Speed 9 mph (North)    
Max Wind Speed 26 mph    
Max Gust Speed 31 mph    
Visibility 10 miles    
Events Snow    
T = Trace of Precipitation, MM = Missing Value Source: NWS Daily Summary

Daily Weather History Graph

Daily Weather History Graph

Search for Another Location

Airport or City:

Trip Planner

Search our weather history database for the weather conditions in past years. The results will help you decide how hot, cold, wet, or windy it might be!

Date:

Astronomy

Feb. 17, 2012 Rise Set
Actual Time 6:48 AM MST 5:38 PM MST
Civil Twilight 6:20 AM MST 6:05 PM MST
Nautical Twilight 5:49 AM MST 6:36 PM MST
Astronomical Twilight 5:18 AM MST 7:07 PM MST
Moon 3:39 AM MST (2/17) 1:35 PM MST (2/17)
Length of Visible Light 11h 44m
Length of Day
10h 50m
Waning Crescent, 18% of the Moon is Illuminated
Feb 17
Waning Crescent
Feb 21
New
Feb 29
First Quarter
Mar 8
Full
Mar 14
Last Quarter

Hourly Weather History & Observations

Time (MST) Temp. Windchill Dew Point Humidity Pressure Visibility Wind Dir Wind Speed Gust Speed Precip Events Conditions
12:54 AM 23.0 °F 17.0 °F 12.9 °F 65% 30.13 in 10.0 mi North 4.6 mph - N/A   Clear
1:54 AM 24.1 °F 18.2 °F 10.9 °F 57% 30.12 in 10.0 mi North 4.6 mph - N/A   Clear
2:54 AM 21.9 °F 11.0 °F 9.0 °F 58% 30.11 in 10.0 mi North 10.4 mph - N/A   Clear
3:54 AM 26.1 °F 20.5 °F 7.0 °F 44% 30.08 in 10.0 mi NNW 4.6 mph - N/A   Clear
4:54 AM 26.1 °F 20.5 °F 6.1 °F 43% 30.11 in 10.0 mi NNW 4.6 mph - N/A   Clear
5:54 AM 23.0 °F 15.8 °F 6.8 °F 50% 30.03 in 10.0 mi North 5.8 mph - N/A   Clear
6:54 AM 23.0 °F 14.7 °F 6.1 °F 48% 30.17 in 10.0 mi North 6.9 mph - N/A   Clear
7:54 AM 28.9 °F 23.9 °F 8.1 °F 41% 30.15 in 10.0 mi NNW 4.6 mph - N/A   Clear
8:54 AM 37.9 °F 35.5 °F 9.0 °F 30% 30.14 in 10.0 mi North 3.5 mph - N/A   Clear
9:54 AM 44.1 °F - -2.9 °F 14% 30.08 in 10.0 mi Calm Calm - N/A   Clear
10:54 AM 48.0 °F - -5.1 °F 11% 30.06 in 10.0 mi Variable 5.8 mph - N/A   Clear
11:54 AM 48.9 °F - -6.0 °F 10% 30.04 in 10.0 mi Calm Calm - N/A   Clear
12:54 PM 46.0 °F 39.0 °F 5.0 °F 19% 30.04 in 10.0 mi East 17.3 mph - N/A   Partly Cloudy
1:54 PM 44.1 °F 36.5 °F 9.0 °F 24% 30.05 in 10.0 mi East 17.3 mph - N/A   Partly Cloudy
2:54 PM 42.1 °F 33.9 °F 17.1 °F 37% 30.08 in 10.0 mi East 17.3 mph - N/A   Partly Cloudy
3:54 PM 37.9 °F 28.2 °F 15.1 °F 39% 30.10 in 9.0 mi NE 18.4 mph - N/A   Partly Cloudy
4:54 PM 35.1 °F 23.8 °F 14.0 °F 42% 30.12 in 9.0 mi NNE 20.7 mph 31.1 mph N/A   Scattered Clouds
5:54 PM 32.0 °F 22.1 °F 14.0 °F 48% 30.19 in 10.0 mi North 13.8 mph 24.2 mph N/A   Scattered Clouds
6:54 PM 32.0 °F 22.1 °F 14.0 °F 48% 30.22 in 10.0 mi NNW 13.8 mph - N/A   Mostly Cloudy
7:54 PM 30.9 °F 21.2 °F 14.0 °F 50% 30.22 in 10.0 mi North 12.7 mph - N/A   Overcast
8:54 PM 30.0 °F 21.1 °F 14.0 °F 51% 30.20 in 10.0 mi North 10.4 mph - N/A   Overcast
9:54 PM 28.9 °F 18.2 °F 17.1 °F 61% 30.20 in 10.0 mi NNE 13.8 mph - 0.00 in Snow Light Snow
10:54 PM 27.0 °F 19.5 °F 21.0 °F 78% 30.19 in 5.0 mi NE 6.9 mph - 0.00 in Snow Light Snow
11:54 PM 26.1 °F - 21.9 °F 84% 30.18 in 5.0 mi Calm Calm - 0.00 in Snow Light Snow